• In Netherlands
  • List of Countries
  • For 7 days
  • Water Temperature
  • Satellite Maps
  • Weather Map
  • Weather Widgets
  • user-avatar
    Login

    Hourly Weather Orsha

    Today, 21 July, Friday

    Time Temperature Precipitation Wind Pressure Humidity
    00:00 +14°C° 0 mm 1 mps 743 mmHg 90%
    01:00 +14°C° 0 mm 1 mps 743 mmHg 91%
    02:00 +14°C° 0 mm 1 mps 743 mmHg 92%
    03:00 +13°C° 0 mm 1 mps 743 mmHg 93%
    04:00 +13°C° 0 mm 1 mps 743 mmHg 93%
    05:00 +13°C° 0 mm 2 mps 743 mmHg 94%
    06:00 +15°C° 0 mm 2 mps 744 mmHg 90%
    07:00 +16°C° 0 mm 2 mps 744 mmHg 86%
    08:00 +17°C° 0 mm 3 mps 744 mmHg 82%
    09:00 +19°C° 0 mm 3 mps 744 mmHg 75%
    10:00 +20°C° 0 mm 3 mps 744 mmHg 68%
    11:00 +21°C° 0 mm 3 mps 744 mmHg 61%
    12:00 +22°C° 0 mm 3 mps 744 mmHg 59%
    13:00 +22°C° 0 mm 3 mps 744 mmHg 56%
    14:00 +23°C° 0 mm 2 mps 744 mmHg 54%
    15:00 +23°C° 0 mm 2 mps 744 mmHg 56%
    16:00 +23°C° 0 mm 2 mps 744 mmHg 58%
    17:00 +23°C° 0 mm 2 mps 744 mmHg 59%
    18:00 +20°C° 0 mm 2 mps 745 mmHg 64%
    19:00 +18°C° 0 mm 2 mps 745 mmHg 69%
    20:00 +18°C° 0 mm 1 mps 745 mmHg 74%
    21:00 +16°C° 0 mm 1 mps 745 mmHg 75%
    22:00 +15°C° 0 mm 1 mps 745 mmHg 77%
    23:00 +15°C° 0 mm 2 mps 745 mmHg 78%

    Tomorrow, 22 July, Saturday

    Time Temperature Precipitation Wind Pressure Humidity
    00:00 +14°C° 0 mm 1 mps 745 mmHg 79%
    01:00 +14°C° 0 mm 1 mps 745 mmHg 80%
    02:00 +14°C° 0 mm 1 mps 745 mmHg 82%
    03:00 +14°C° 0 mm 1 mps 745 mmHg 82%
    04:00 +14°C° 0 mm 2 mps 745 mmHg 82%
    05:00 +14°C° 0 mm 2 mps 745 mmHg 83%
    06:00 +15°C° 0 mm 2 mps 746 mmHg 79%
    07:00 +16°C° 0 mm 2 mps 746 mmHg 76%
    08:00 +18°C° 0 mm 2 mps 746 mmHg 73%
    09:00 +19°C° 0 mm 2 mps 746 mmHg 69%
    10:00 +20°C° 0 mm 2 mps 746 mmHg 65%
    11:00 +21°C° 0 mm 2 mps 746 mmHg 61%
    12:00 +21°C° 0 mm 2 mps 746 mmHg 59%
    13:00 +23°C° 0 mm 2 mps 746 mmHg 57%
    14:00 +23°C° 0 mm 2 mps 746 mmHg 55%
    15:00 +23°C° 0 mm 2 mps 746 mmHg 57%
    16:00 +23°C° 0 mm 2 mps 746 mmHg 59%
    17:00 +23°C° 0 mm 2 mps 746 mmHg 61%
    18:00 +21°C° 0 mm 2 mps 746 mmHg 67%
    19:00 +19°C° 0 mm 2 mps 746 mmHg 72%
    20:00 +17°C° 0 mm 2 mps 746 mmHg 78%
    21:00 +17°C° 0 mm 2 mps 746 mmHg 79%
    22:00 +16°C° 0 mm 2 mps 746 mmHg 81%
    23:00 +15°C° 0 mm 2 mps 746 mmHg 82%

    Day after tomorrow, 23 July, Sunday

    Time Temperature Precipitation Wind Pressure Humidity
    00:00 +14°C° 0 mm 2 mps 746 mmHg 84%
    01:00 +14°C° 0 mm 2 mps 746 mmHg 85%
    02:00 +13°C° 0 mm 2 mps 746 mmHg 86%
    03:00 +13°C° 0 mm 2 mps 746 mmHg 86%
    04:00 +13°C° 0 mm 2 mps 746 mmHg 86%
    05:00 +13°C° 0 mm 2 mps 746 mmHg 86%
    06:00 +14°C° 0 mm 2 mps 746 mmHg 81%
    07:00 +16°C° 0 mm 2 mps 747 mmHg 76%
    08:00 +18°C° 0 mm 2 mps 747 mmHg 71%
    09:00 +19°C° 0 mm 2 mps 747 mmHg 66%
    10:00 +21°C° 0 mm 2 mps 747 mmHg 60%
    11:00 +23°C° 0 mm 2 mps 747 mmHg 55%
    12:00 +23°C° 0 mm 2 mps 747 mmHg 53%
    13:00 +24°C° 0 mm 2 mps 747 mmHg 51%
    14:00 +24°C° 0 mm 2 mps 747 mmHg 50%
    15:00 +24°C° 0 mm 2 mps 746 mmHg 52%
    16:00 +24°C° 0 mm 2 mps 746 mmHg 54%
    17:00 +24°C° 0 mm 2 mps 746 mmHg 56%
    18:00 +21°C° 0 mm 2 mps 746 mmHg 62%
    19:00 +20°C° 0 mm 1 mps 746 mmHg 67%
    20:00 +18°C° 0 mm 1 mps 746 mmHg 73%
    21:00 +16°C° 0 mm 1 mps 746 mmHg 75%
    22:00 +16°C° 0 mm 1 mps 746 mmHg 77%
    23:00 +15°C° 0 mm 1 mps 746 mmHg 79%

    24 July, Monday

    Time Temperature Precipitation Wind Pressure Humidity
    00:00 +14°C° 0 mm 1 mps 746 mmHg 81%
    01:00 +14°C° 0 mm 1 mps 746 mmHg 82%
    02:00 +13°C° 0 mm 0 mps 746 mmHg 84%
    03:00 +13°C° 0 mm 0 mps 746 mmHg 83%
    04:00 +13°C° 0 mm 0 mps 746 mmHg 83%
    05:00 +13°C° 0 mm 0 mps 746 mmHg 83%
    06:00 +15°C° 0 mm 0 mps 746 mmHg 77%
    07:00 +17°C° 0 mm 0 mps 746 mmHg 72%
    08:00 +19°C° 0 mm 0 mps 746 mmHg 67%
    09:00 +22°C° 0 mm 1 mps 746 mmHg 62%
    10:00 +23°C° 0 mm 1 mps 746 mmHg 57%
    11:00 +25°C° 0 mm 1 mps 746 mmHg 53%
    12:00 +25°C° 0 mm 1 mps 745 mmHg 51%
    13:00 +26°C° 0 mm 1 mps 745 mmHg 49%
    14:00 +26°C° 0 mm 1 mps 745 mmHg 47%
    15:00 +26°C° 0 mm 1 mps 745 mmHg 49%
    16:00 +26°C° 0 mm 1 mps 745 mmHg 50%
    17:00 +26°C° 0 mm 1 mps 745 mmHg 51%
    18:00 +24°C° 0 mm 1 mps 745 mmHg 57%
    19:00 +22°C° 0 mm 1 mps 744 mmHg 63%
    20:00 +19°C° 0 mm 2 mps 744 mmHg 69%
    21:00 +19°C° 0 mm 2 mps 744 mmHg 71%
    22:00 +18°C° 0 mm 2 mps 744 mmHg 73%
    23:00 +17°C° 0 mm 2 mps 744 mmHg 75%

    25 July, Tuesday

    Time Temperature Precipitation Wind Pressure Humidity
    00:00 +17°C° 0 mm 2 mps 744 mmHg 77%
    01:00 +16°C° 0 mm 2 mps 744 mmHg 79%
    02:00 +16°C° 0 mm 2 mps 744 mmHg 81%
    03:00 +16°C° 0 mm 2 mps 744 mmHg 82%
    04:00 +15°C° 0 mm 2 mps 744 mmHg 83%
    05:00 +15°C° 0 mm 2 mps 744 mmHg 84%
    06:00 +17°C° 0 mm 2 mps 744 mmHg 80%
    07:00 +19°C° 0 mm 2 mps 744 mmHg 76%
    08:00 +20°C° 0 mm 2 mps 744 mmHg 71%
    09:00 +22°C° 0 mm 3 mps 744 mmHg 67%
    10:00 +24°C° 0 mm 3 mps 744 mmHg 62%
    11:00 +25°C° 0 mm 3 mps 744 mmHg 58%
    12:00 +26°C° 0 mm 4 mps 743 mmHg 57%
    13:00 +26°C° 0 mm 4 mps 743 mmHg 56%
    14:00 +27°C° 0 mm 4 mps 743 mmHg 55%
    15:00 +26°C° 0 mm 4 mps 743 mmHg 58%
    16:00 +26°C° 0 mm 3 mps 742 mmHg 61%
    17:00 +26°C° 0 mm 3 mps 742 mmHg 64%
    18:00 +24°C° 0 mm 3 mps 742 mmHg 69%
    19:00 +22°C° 0 mm 3 mps 742 mmHg 74%
    20:00 +20°C° 0 mm 3 mps 742 mmHg 79%
    21:00 +19°C° 0 mm 3 mps 742 mmHg 80%
    22:00 +19°C° 0 mm 3 mps 742 mmHg 80%
    23:00 +18°C° 0 mm 3 mps 742 mmHg 81%

    26 July, Wednesday

    Time Temperature Precipitation Wind Pressure Humidity
    00:00 +17°C° 0 mm 3 mps 742 mmHg 82%
    01:00 +17°C° 0 mm 3 mps 742 mmHg 83%
    02:00 +16°C° 0 mm 3 mps 742 mmHg 83%
    03:00 +16°C° 0 mm 3 mps 742 mmHg 84%
    04:00 +16°C° 0 mm 3 mps 742 mmHg 85%
    05:00 +16°C° 0 mm 3 mps 742 mmHg 86%
    06:00 +18°C° 0 mm 4 mps 742 mmHg 82%
    07:00 +20°C° 0 mm 4 mps 742 mmHg 77%
    08:00 +22°C° 0 mm 5 mps 742 mmHg 72%
    09:00 +23°C° 0 mm 5 mps 742 mmHg 67%
    10:00 +25°C° 0 mm 5 mps 742 mmHg 63%
    11:00 +27°C° 0 mm 6 mps 742 mmHg 58%
    12:00 +28°C° 0 mm 6 mps 741 mmHg 57%
    13:00 +28°C° 0 mm 5 mps 741 mmHg 55%
    14:00 +29°C° 0 mm 5 mps 741 mmHg 54%
    15:00 +28°C° 0.1 mm 5 mps 741 mmHg 59%
    16:00 +28°C° 0.1 mm 4 mps 741 mmHg 63%
    17:00 +27°C° 0.1 mm 4 mps 741 mmHg 67%
    18:00 +26°C° 0.6 mm 4 mps 741 mmHg 73%
    19:00 +24°C° 0.6 mm 3 mps 741 mmHg 78%
    20:00 +22°C° 0.6 mm 3 mps 741 mmHg 84%
    21:00 +21°C° 0.9 mm 2 mps 741 mmHg 87%
    22:00 +20°C° 0.9 mm 2 mps 741 mmHg 89%
    23:00 +20°C° 0.9 mm 2 mps 741 mmHg 92%
    Show more